Flag for United Kingdom Weather past 2 weeks in Lichfield, England, United Kingdom

Now
63 °F

Partly cloudy.


Feels Like: 63 °F
Forecast: 57 / 73 °F
Wind: 7 mph from Northeast

Location: Birmingham / Airport

Current Time: Sep 17, 2014 at 11:08:54 PM

Latest Report: Sep 17, 2014 at 10:20 PM


Visibility: 2 mi

Pressure: 29.89 "Hg

Humidity: 88%

Dew point: 59 °F

Location of LichfieldLocation

Historic Weather in Lichfield — Graph

°F

Lichfield temperature yesterday

Maximum temperature yesterday: 70 °F (at 3:20 PM)
Minimum temperature yesterday: 52 °F (at 6:20 AM)
Average temperature yesterday: 62 °F

Past Weeks' High & Low Weather Summary

 TemperatureHumidityPressure
High70 °F (Sep 3, 3:50 PM)100% (Sep 3, 6:20 AM)30.36 "Hg (Sep 3, 6:20 AM)
Low48 °F (Sep 8, 4:20 AM)46% (Sep 7, 1:50 PM)29.86 "Hg (Sep 17, 4:50 PM)
Average60 °F77%30.12 "Hg
* Reported Sep 2 9:20 PM — Sep 17 9:50 PM, Lichfield, Weather by CustomWeather, © 2014

Note: Actual official high and low records may vary slightly from our data, if they occured in-between our weather recording intervals... More about our weather records

Advertising

Lichfield weather history for previous 24 hours

 ConditionsComfort  
Time TempWeatherWind HumidityBarometerVisibility
9:50 PM
Sep 17
63 °FPartly cloudy.7 mph88%29.89 "Hg2 mi
9:20 PM63 °FPassing clouds.7 mph88%29.89 "Hg3 mi
8:50 PM63 °FPassing clouds.7 mph88%29.89 "Hg3 mi
8:20 PM63 °FPassing clouds.8 mph88%29.89 "Hg3 mi
7:50 PM63 °FScattered clouds.9 mph88%29.89 "Hg3 mi
7:20 PM64 °FScattered clouds.9 mph83%29.89 "Hg4 mi
6:50 PM66 °FScattered clouds.9 mph78%29.89 "Hg4 mi
6:20 PM66 °FBroken clouds.9 mph78%29.89 "Hg4 mi
5:50 PM68 °FBroken clouds.10 mph73%29.89 "Hg6 mi
5:20 PM68 °FScattered clouds.10 mph69%29.86 "HgN/A
4:50 PM70 °FScattered clouds.10 mph64%29.86 "HgN/A
4:20 PM70 °FPassing clouds.9 mph64%29.89 "HgN/A
3:50 PM70 °FScattered clouds.9 mph64%29.89 "HgN/A
3:20 PM70 °FScattered clouds.9 mph64%29.89 "HgN/A
2:50 PM68 °FScattered clouds.9 mph64%29.89 "HgN/A
2:20 PM68 °FScattered clouds.10 mph64%29.89 "HgN/A
1:50 PM66 °FPartly sunny.9 mph68%29.92 "HgN/A
1:20 PM66 °FBroken clouds.12 mph68%29.92 "HgN/A
12:50 PM64 °FBroken clouds.10 mph73%29.92 "HgN/A
12:20 PM66 °FPartly sunny.9 mph73%29.92 "HgN/A
11:50 AM64 °FBroken clouds.10 mph78%29.92 "HgN/A
11:20 AM64 °FBroken clouds.10 mph78%29.92 "HgN/A
10:50 AM64 °FBroken clouds.10 mph78%29.95 "Hg6 mi
10:20 AM63 °FBroken clouds.8 mph83%29.95 "Hg4 mi
9:50 AM61 °FBroken clouds.9 mph88%29.95 "Hg4 mi
9:20 AM61 °FBroken clouds.9 mph88%29.95 "Hg4 mi
8:50 AM61 °FMostly cloudy.9 mph88%29.95 "Hg3 mi
8:20 AM61 °FMore clouds than sun.8 mph88%29.95 "Hg3 mi
7:50 AM61 °FMostly cloudy.7 mph88%29.95 "Hg4 mi
7:20 AM61 °FMostly cloudy.8 mph83%29.95 "Hg4 mi
6:50 AM61 °FMostly cloudy.8 mph83%29.95 "Hg4 mi
6:20 AM61 °FOvercast.9 mph83%29.95 "Hg4 mi
5:50 AM61 °FOvercast.8 mph83%29.95 "Hg4 mi
5:20 AM61 °FOvercast.9 mph83%29.95 "Hg4 mi
4:50 AM61 °FOvercast.7 mph83%29.95 "Hg4 mi
4:20 AM61 °FOvercast.7 mph83%29.95 "Hg6 mi
3:50 AM61 °FOvercast.7 mph83%29.95 "Hg5 mi
3:20 AM61 °FOvercast.8 mph83%29.95 "Hg4 mi
2:50 AM61 °FOvercast.7 mph83%29.98 "Hg4 mi
2:20 AM61 °FOvercast.8 mph83%29.98 "Hg4 mi
1:50 AM61 °FOvercast.9 mph83%29.98 "Hg4 mi
1:20 AM61 °FOvercast.8 mph88%29.98 "Hg3 mi
12:50 AM61 °FOvercast.9 mph88%29.98 "Hg3 mi
12:20 AM61 °FLow clouds.8 mph88%29.98 "Hg3 mi
11:50 PM
Sep 16
61 °FLow clouds.10 mph88%29.98 "Hg3 mi
11:20 PM61 °FLow clouds.8 mph88%29.98 "Hg3 mi
Weather by CustomWeather, © 2014

See weather overviewHow to use our weather pages